MAU219 FIMP-FMEE

Flight info

Callsign MAU219
Flight time 0h 33m
Altitude 20000
Route SOBAT1 SOBAT SOBAT2R
Aircraft A359/H-SDE2E3GHIJ3J4J5LM1ORWXY/LB1D1

Departure

Time 2026-05-07 20:30
Airport Sir Seewoosagur Ramgoolam International Airport (FIMP)

Arrival

Time 2026-05-07 21:04
Airport Roland Garros Airport (FMEE)
Time Latitude Longitude Altitude Speed Heading
2026-05-07 20:02 -20.43089 57.67710 192 ft 0 kts 208°
2026-05-07 20:20 -20.43083 57.67713 189 ft 3 kts 208°
2026-05-07 20:21 -20.43066 57.67722 204 ft 3 kts 208°
2026-05-07 20:21 -20.43047 57.67733 204 ft 3 kts 210°
2026-05-07 20:21 -20.43029 57.67746 204 ft 3 kts 221°
2026-05-07 20:21 -20.43021 57.67756 204 ft 2 kts 259°
2026-05-07 20:22 -20.43022 57.67768 204 ft 2 kts 293°
2026-05-07 20:22 -20.43026 57.67779 204 ft 2 kts 299°
2026-05-07 20:22 -20.43027 57.67780 204 ft 0 kts 298°
2026-05-07 20:26 -20.43027 57.67779 188 ft 1 kts 298°
2026-05-07 20:26 -20.43014 57.67755 201 ft 7 kts 297°
2026-05-07 20:26 -20.42985 57.67691 202 ft 11 kts 299°
2026-05-07 20:27 -20.42917 57.67629 196 ft 15 kts 328°
2026-05-07 20:27 -20.42828 57.67568 191 ft 13 kts 324°
2026-05-07 20:27 -20.42779 57.67529 201 ft 2 kts 323°
2026-05-07 20:27 -20.42763 57.67517 200 ft 4 kts 324°
2026-05-07 20:28 -20.42738 57.67498 200 ft 5 kts 329°
2026-05-07 20:28 -20.42700 57.67480 200 ft 8 kts 339°
2026-05-07 20:28 -20.42643 57.67463 197 ft 6 kts
2026-05-07 20:28 -20.42627 57.67487 197 ft 5 kts 63°
2026-05-07 20:29 -20.42630 57.67533 197 ft 9 kts 105°
2026-05-07 20:29 -20.42643 57.67563 190 ft 0 kts 118°
2026-05-07 20:29 -20.42659 57.67595 183 ft 19 kts 117°
2026-05-07 20:30 -20.42850 57.67994 165 ft 101 kts 116°
2026-05-07 20:30 -20.43271 57.68883 262 ft 155 kts 115°
2026-05-07 20:30 -20.43740 57.69877 1244 ft 148 kts 116°
2026-05-07 20:30 -20.44323 57.70825 1844 ft 162 kts 130°
2026-05-07 20:31 -20.45407 57.71404 2021 ft 196 kts 169°
2026-05-07 20:31 -20.46828 57.71004 2161 ft 236 kts 210°
2026-05-07 20:31 -20.48125 57.69780 2560 ft 258 kts 223°
2026-05-07 20:31 -20.49415 57.68381 3096 ft 270 kts 222°
2026-05-07 20:32 -20.50763 57.66966 3774 ft 274 kts 221°
2026-05-07 20:32 -20.52147 57.65554 4480 ft 278 kts 221°
2026-05-07 20:32 -20.53565 57.64132 5151 ft 282 kts 220°
2026-05-07 20:32 -20.54972 57.62734 5894 ft 281 kts 220°
2026-05-07 20:33 -20.56432 57.61289 6652 ft 281 kts 220°
2026-05-07 20:33 -20.57850 57.59891 7290 ft 284 kts 220°
2026-05-07 20:33 -20.59336 57.58429 7903 ft 288 kts 220°
2026-05-07 20:33 -20.60822 57.56969 8492 ft 292 kts 220°
2026-05-07 20:34 -20.62320 57.55481 9086 ft 297 kts 221°
2026-05-07 20:34 -20.63591 57.53725 9653 ft 303 kts 242°
2026-05-07 20:34 -20.64075 57.51541 10107 ft 308 kts 271°
2026-05-07 20:34 -20.63763 57.49246 10435 ft 320 kts 283°
2026-05-07 20:35 -20.63242 57.46879 10649 ft 336 kts 284°
2026-05-07 20:35 -20.62692 57.44404 10880 ft 349 kts 283°
2026-05-07 20:35 -20.62156 57.41884 11244 ft 356 kts 282°
2026-05-07 20:35 -20.61955 57.39226 11721 ft 358 kts 266°
2026-05-07 20:36 -20.62148 57.36563 12199 ft 361 kts 264°
2026-05-07 20:36 -20.62284 57.33917 12686 ft 364 kts 267°
2026-05-07 20:36 -20.62362 57.31206 13157 ft 367 kts 267°
2026-05-07 20:36 -20.62445 57.28479 13643 ft 369 kts 267°
2026-05-07 20:37 -20.62538 57.25729 14089 ft 371 kts 266°
2026-05-07 20:37 -20.62636 57.22967 14518 ft 374 kts 266°
2026-05-07 20:37 -20.62737 57.20190 14954 ft 376 kts 266°
2026-05-07 20:37 -20.62841 57.17407 15399 ft 377 kts 266°
2026-05-07 20:38 -20.62946 57.14599 15857 ft 379 kts 266°
2026-05-07 20:38 -20.63051 57.11781 16303 ft 381 kts 266°
2026-05-07 20:38 -20.63157 57.08954 16741 ft 383 kts 266°
2026-05-07 20:38 -20.63263 57.06106 17165 ft 386 kts 266°
2026-05-07 20:39 -20.63368 57.03239 17605 ft 387 kts 266°
2026-05-07 20:39 -20.63475 57.00357 18043 ft 389 kts 266°
2026-05-07 20:39 -20.63583 56.97460 18462 ft 391 kts 266°
2026-05-07 20:39 -20.63690 56.94554 18831 ft 393 kts 266°
2026-05-07 20:40 -20.63796 56.91630 19191 ft 395 kts 266°
2026-05-07 20:40 -20.63902 56.88691 19533 ft 397 kts 266°
2026-05-07 20:40 -20.64009 56.85741 19894 ft 399 kts 266°
2026-05-07 20:40 -20.64114 56.82788 20064 ft 395 kts 267°
2026-05-07 20:41 -20.64215 56.79910 20102 ft 381 kts 267°
2026-05-07 20:41 -20.64313 56.77108 20097 ft 376 kts 266°
2026-05-07 20:41 -20.64412 56.74328 20093 ft 376 kts 266°
2026-05-07 20:41 -20.64511 56.71542 20092 ft 376 kts 266°
2026-05-07 20:42 -20.64610 56.68753 20088 ft 376 kts 266°
2026-05-07 20:42 -20.64707 56.65964 20088 ft 376 kts 267°
2026-05-07 20:42 -20.64805 56.63172 20093 ft 376 kts 266°
2026-05-07 20:42 -20.64900 56.60423 20093 ft 376 kts 266°
2026-05-07 20:43 -20.64997 56.57632 20086 ft 376 kts 267°
2026-05-07 20:43 -20.65093 56.54842 20090 ft 376 kts 267°
2026-05-07 20:43 -20.65189 56.52048 20098 ft 376 kts 267°
2026-05-07 20:43 -20.65283 56.49256 20087 ft 376 kts 267°
2026-05-07 20:44 -20.65378 56.46466 20095 ft 376 kts 267°
2026-05-07 20:44 -20.65472 56.43678 20086 ft 376 kts 267°
2026-05-07 20:44 -20.65565 56.40886 20090 ft 376 kts 267°
2026-05-07 20:44 -20.65658 56.38095 20086 ft 376 kts 267°
2026-05-07 20:45 -20.65750 56.35309 20047 ft 377 kts 267°
2026-05-07 20:45 -20.65845 56.32447 19964 ft 392 kts 267°
2026-05-07 20:45 -20.65941 56.29534 19815 ft 388 kts 267°
2026-05-07 20:45 -20.66033 56.26713 19772 ft 373 kts 267°
2026-05-07 20:46 -20.66121 56.23962 19605 ft 370 kts 267°
2026-05-07 20:46 -20.66210 56.21217 19141 ft 370 kts 267°
2026-05-07 20:46 -20.66298 56.18473 18672 ft 369 kts 267°
2026-05-07 20:46 -20.66385 56.15735 18150 ft 369 kts 266°
2026-05-07 20:47 -20.66472 56.13006 17670 ft 367 kts 267°
2026-05-07 20:47 -20.66558 56.10290 17196 ft 365 kts 266°
2026-05-07 20:47 -20.66644 56.07591 16607 ft 365 kts 267°
2026-05-07 20:47 -20.66732 56.04845 15822 ft 373 kts 267°
2026-05-07 20:48 -20.66820 56.02076 15249 ft 373 kts 267°
2026-05-07 20:48 -20.66906 55.99314 14744 ft 371 kts 267°
2026-05-07 20:48 -20.66991 55.96566 14253 ft 369 kts 267°
2026-05-07 20:48 -20.67075 55.93838 13746 ft 367 kts 267°
2026-05-07 20:49 -20.67158 55.91122 13204 ft 365 kts 267°
2026-05-07 20:49 -20.67240 55.88428 12682 ft 362 kts 267°
2026-05-07 20:49 -20.67320 55.85792 12171 ft 359 kts 268°
2026-05-07 20:49 -20.67399 55.83144 11670 ft 355 kts 268°
2026-05-07 20:50 -20.67479 55.80514 11170 ft 353 kts 268°
2026-05-07 20:50 -20.67557 55.77910 10687 ft 349 kts 268°
2026-05-07 20:50 -20.67633 55.75355 10434 ft 338 kts 268°
2026-05-07 20:50 -20.67705 55.72892 10261 ft 326 kts 268°
2026-05-07 20:51 -20.67775 55.70521 10095 ft 314 kts 268°
2026-05-07 20:51 -20.67842 55.68218 9813 ft 307 kts 268°
2026-05-07 20:51 -20.67907 55.65946 9375 ft 305 kts 268°
2026-05-07 20:51 -20.67972 55.63681 8928 ft 305 kts 268°
2026-05-07 20:52 -20.68037 55.61413 8454 ft 306 kts 268°
2026-05-07 20:52 -20.68102 55.59147 8055 ft 304 kts 268°
2026-05-07 20:52 -20.68167 55.56898 7665 ft 302 kts 267°
2026-05-07 20:52 -20.68230 55.54662 7271 ft 300 kts 267°
2026-05-07 20:53 -20.68294 55.52439 6880 ft 299 kts 267°
2026-05-07 20:53 -20.68356 55.50222 6480 ft 299 kts 267°
2026-05-07 20:53 -20.68419 55.48007 6058 ft 298 kts 267°
2026-05-07 20:53 -20.68482 55.45806 5674 ft 295 kts 267°
2026-05-07 20:54 -20.68543 55.43619 5271 ft 294 kts 267°
2026-05-07 20:54 -20.68603 55.41435 4853 ft 294 kts 267°
2026-05-07 20:54 -20.68664 55.39253 4480 ft 292 kts 267°
2026-05-07 20:54 -20.68722 55.37102 4111 ft 289 kts 267°
2026-05-07 20:55 -20.68783 55.34954 3693 ft 289 kts 268°
2026-05-07 20:55 -20.68841 55.32842 3482 ft 279 kts 268°
2026-05-07 20:55 -20.68792 55.30812 3334 ft 268 kts 271°
2026-05-07 20:55 -20.69223 55.28944 3086 ft 256 kts 234°
2026-05-07 20:56 -20.70490 55.27765 3002 ft 238 kts 197°
2026-05-07 20:56 -20.72078 55.27584 3017 ft 228 kts 171°
2026-05-07 20:56 -20.73640 55.27679 2995 ft 218 kts 173°
2026-05-07 20:56 -20.75101 55.27748 2995 ft 201 kts 172°
2026-05-07 20:57 -20.76454 55.27856 3016 ft 191 kts 167°
2026-05-07 20:57 -20.77641 55.28370 3026 ft 182 kts 137°
2026-05-07 20:57 -20.78508 55.29332 3000 ft 179 kts 122°
2026-05-07 20:57 -20.79120 55.30471 2992 ft 171 kts 115°
2026-05-07 20:58 -20.79625 55.31554 3047 ft 159 kts 114°
2026-05-07 20:58 -20.80110 55.32603 3014 ft 157 kts 114°
2026-05-07 20:58 -20.80599 55.33652 2995 ft 157 kts 115°
2026-05-07 20:58 -20.81089 55.34697 3001 ft 157 kts 115°
2026-05-07 20:59 -20.81580 55.35741 2976 ft 155 kts 115°
2026-05-07 20:59 -20.82054 55.36748 2795 ft 149 kts 114°
2026-05-07 20:59 -20.82506 55.37721 2597 ft 144 kts 114°
2026-05-07 20:59 -20.82946 55.38666 2401 ft 141 kts 114°
2026-05-07 21:00 -20.83382 55.39601 2210 ft 139 kts 114°
2026-05-07 21:00 -20.83813 55.40528 2027 ft 139 kts 115°
2026-05-07 21:00 -20.84236 55.41437 1847 ft 136 kts 115°
2026-05-07 21:00 -20.84648 55.42321 1688 ft 127 kts 116°
2026-05-07 21:01 -20.85032 55.43146 1538 ft 125 kts 116°
2026-05-07 21:01 -20.85411 55.43997 1363 ft 126 kts 116°
2026-05-07 21:01 -20.85793 55.44840 1142 ft 126 kts 117°
2026-05-07 21:01 -20.86194 55.45659 1016 ft 126 kts 118°
2026-05-07 21:02 -20.86602 55.46490 828 ft 126 kts 116°
2026-05-07 21:02 -20.86974 55.47335 656 ft 126 kts 115°
2026-05-07 21:02 -20.87359 55.48168 522 ft 124 kts 117°
2026-05-07 21:02 -20.87750 55.48990 390 ft 124 kts 115°
2026-05-07 21:03 -20.88126 55.49823 220 ft 124 kts 118°
2026-05-07 21:03 -20.88525 55.50634 60 ft 123 kts 117°
2026-05-07 21:03 -20.88851 55.51332 62 ft 72 kts 117°
2026-05-07 21:03 -20.89024 55.51712 68 ft 51 kts 115°
2026-05-07 21:04 -20.89174 55.52026 65 ft 39 kts 117°
2026-05-07 21:04 -20.89235 55.52154 64 ft 17 kts 117°
2026-05-07 21:04 -20.89318 55.52218 79 ft 11 kts 186°
2026-05-07 21:04 -20.89360 55.52199 91 ft 2 kts 204°
2026-05-07 21:05 -20.89363 55.52197 91 ft 1 kts 204°
2026-05-07 21:05 -20.89380 55.52189 92 ft 2 kts 204°
2026-05-07 21:05 -20.89392 55.52182 95 ft 3 kts 215°
2026-05-07 21:05 -20.89408 55.52144 96 ft 9 kts 263°
2026-05-07 21:06 -20.89379 55.52073 96 ft 11 kts 300°
2026-05-07 21:06 -20.89343 55.51994 95 ft 12 kts 296°
2026-05-07 21:06 -20.89299 55.51895 94 ft 17 kts 296°
2026-05-07 21:06 -20.89240 55.51768 93 ft 21 kts 296°
2026-05-07 21:07 -20.89202 55.51689 92 ft 0 kts 296°
2026-05-07 21:07 -20.89201 55.51686 92 ft 1 kts 296°
2026-05-07 21:07 -20.89195 55.51673 90 ft 4 kts 299°
2026-05-07 21:07 -20.89175 55.51634 92 ft 8 kts 298°
2026-05-07 21:08 -20.89141 55.51564 89 ft 13 kts 296°
2026-05-07 21:08 -20.89106 55.51489 86 ft 3 kts 296°
2026-05-07 21:08 -20.89088 55.51451 86 ft 8 kts 296°
2026-05-07 21:08 -20.89060 55.51389 85 ft 10 kts 296°
2026-05-07 21:09 -20.89032 55.51328 84 ft 9 kts 296°
2026-05-07 21:09 -20.89020 55.51275 84 ft 6 kts 258°
2026-05-07 21:09 -20.89044 55.51252 86 ft 4 kts 211°
2026-05-07 21:09 -20.89065 55.51239 85 ft 3 kts 208°
2026-05-07 21:10 -20.89068 55.51238 86 ft 0 kts 208°